This demonstration page uses our WeatherBlox Daily Observations layout. Learn more.

Left ArrowRight Arrow

Hourly Observations for May 1, 2021

Temp ( °F °C ) Dew Point ( °F °C ) Humidity (%) Winds ( mph kmh ) Pressure ( in mb ) Visibility ( mi km ) Precip ( " mm )
12:15 am 00:15 Clear 64 18 36 2.1 35 35 SSW 15 24 29.92 1013 10 16 N/A
12:35 am 00:35 Clear 65 18.1 36 2 34 34 SSW 16 26 29.92 1013 10 16 N/A
12:55 am 00:55 Clear 64 17.8 35 1.7 34 34 SSW 15 24 29.92 1013 10 16 N/A
1:15 am 01:15 Clear 63 17.2 35 1.7 35 35 SSW 14 22 29.91 1013 10 16 N/A
1:35 am 01:35 Clear 62 16.5 35 1.7 37 37 SSW 13 20 29.92 1013 10 16 N/A
1:55 am 01:55 Clear 61 16.3 35 1.6 37 37 SSW 13 20 29.92 1013 10 16 N/A
2:15 am 02:15 Clear 61 16.1 35 1.8 38 38 SSW 12 19 29.91 1013 10 16 N/A
2:35 am 02:35 Clear 61 16 35 1.7 38 38 SSW 12 19 29.90 1013 10 16 N/A
2:55 am 02:55 Clear 60 15.5 36 2 40 40 SSW 13 20 29.90 1012 10 16 N/A
3:15 am 03:15 Clear 59 15 36 2 42 42 SSW 10 17 29.89 1012 10 16 N/A
3:35 am 03:35 Clear 58 14.5 36 2 43 43 SSW 10 17 29.89 1012 10 16 N/A
3:55 am 03:55 Clear 57 13.8 36 2 45 45 SSW 10 17 29.90 1013 10 16 N/A
4:15 am 04:15 Clear 56 13.5 36 2 46 46 SSW 9 15 29.89 1012 10 16 N/A
4:35 am 04:35 Clear 55 12.6 36 2 49 49 SSW 8 13 29.90 1013 10 16 N/A
4:55 am 04:55 Clear 55 12.5 36 2 49 49 SSW 9 15 29.89 1012 10 16 N/A
5:15 am 05:15 Clear 54 12.1 36 2 50 50 SSW 9 15 29.88 1012 10 16 N/A
5:35 am 05:35 Clear 54 12.2 36 2 50 50 SSW 8 13 29.87 1012 10 16 N/A
5:55 am 05:55 Clear 54 12 36 2 51 51 SSW 12 19 29.87 1011 10 16 N/A
6:15 am 06:15 Clear 54 12 36 2 51 51 S 14 22 29.86 1011 10 16 N/A
6:35 am 06:35 Clear 53 11.9 36 2 51 51 S 15 24 29.86 1011 10 16 N/A
6:55 am 06:55 Sunny 53 11.8 36 2.2 52 52 S 16 26 29.86 1011 10 16 N/A
7:15 am 07:15 Sunny 54 12.3 36 2.3 51 51 SSW 14 22 29.85 1011 10 16 N/A
7:35 am 07:35 Sunny 55 13 37 2.6 50 50 SSW 13 20 29.85 1011 10 16 N/A
7:55 am 07:55 Sunny 57 13.7 37 2.9 48 48 SSW 14 22 29.83 1010 10 16 N/A
8:15 am 08:15 Sunny 59 14.9 38 3.1 45 45 SSW 12 19 29.82 1010 10 16 N/A
8:35 am 08:35 Sunny 61 16.2 37 2.8 41 41 SSW 16 26 29.80 1009 10 16 N/A
8:55 am 08:55 Sunny 64 17.5 38 3.1 38 38 SW 14 22 29.78 1008 10 16 N/A
9:15 am 09:15 Sunny 65 18.6 38 3.2 36 36 SW 17 28 29.77 1008 10 16 N/A
9:35 am 09:35 Sunny 68 20 38 3.3 33 33 SW 13 20 29.75 1007 10 16 N/A
9:55 am 09:55 Sunny 70 20.9 38 3.3 31 31 SSW 15 24 29.74 1007 10 16 N/A
10:15 am 10:15 Sunny 72 22.1 38 3.4 29 29 SSW 17 28 29.72 1006 10 16 N/A
10:35 am 10:35 Sunny 74 23.2 39 3.7 28 28 SSW 18 30 29.70 1006 10 16 N/A
10:55 am 10:55 Sunny 76 24.3 40 4.5 28 28 S 21 33 29.69 1006 10 16 N/A
11:15 am 11:15 Sunny 77 25 40 4.4 26 26 S 21 33 29.68 1005 10 16 N/A
11:35 am 11:35 Sunny 78 25.7 40 4.5 26 26 SSW 26 43 29.66 1004 10 16 N/A
11:55 am 11:55 Sunny 80 26.6 40 4.2 24 24 SSW 24 39 29.65 1004 10 16 N/A
12:15 pm 12:15 Sunny 81 27.2 39 3.8 22 22 SSW 28 44 29.64 1004 10 16 N/A
12:35 pm 12:35 Sunny 81 27.4 39 3.7 22 22 S 23 37 29.64 1004 10 16 N/A
12:55 pm 12:55 Sunny 83 28.5 39 3.8 21 21 SSW 28 44 29.61 1003 10 16 N/A
1:15 pm 13:15 Sunny 84 28.7 36 2.2 18 18 S 30 48 29.60 1002 10 16 N/A
1:35 pm 13:35 Sunny 85 29.4 36 2.3 18 18 SSW 25 41 29.58 1002 10 16 N/A
1:55 pm 13:55 Sunny 86 29.8 36 2 17 17 SSW 30 48 29.56 1001 10 16 N/A
2:15 pm 14:15 Sunny 87 30.3 35 1.6 16 16 SSW 28 44 29.56 1001 10 16 N/A
2:35 pm 14:35 Sunny 87 30.7 35 1.5 15 15 SSW 23 37 29.54 1000 10 16 N/A
2:55 pm 14:55 Sunny 89 31.4 35 1.5 15 15 SW 23 37 29.52 1000 10 16 N/A
3:15 pm 15:15 Sunny 89 31.7 34 1.2 14 14 SSW 24 39 29.52 1000 10 16 N/A
3:35 pm 15:35 Sunny 89 31.7 34 1 14 14 SW 17 28 29.51 999 10 16 N/A
3:55 pm 15:55 Sunny 88 31 32 0.2 14 14 SW 22 35 29.50 999 10 16 N/A
4:15 pm 16:15 Sunny 90 32 35 1.4 14 14 SSW 18 30 29.48 998 10 16 N/A
4:35 pm 16:35 Sunny 89 31.6 33 0.7 14 14 SSW 22 35 29.48 998 10 16 N/A
4:55 pm 16:55 Sunny 89 31.6 34 1 14 14 SSW 18 30 29.47 998 10 16 N/A
5:15 pm 17:15 Sunny 89 31.6 35 1.9 15 15 S 20 31 29.46 998 10 16 N/A
5:35 pm 17:35 Sunny 89 31.4 36 2.1 15 15 S 24 39 29.45 997 10 16 N/A
5:55 pm 17:55 Sunny 88 31 37 2.5 16 16 S 21 33 29.45 997 10 16 N/A
6:15 pm 18:15 Sunny 88 31 37 2.7 16 16 SSW 21 33 29.45 997 10 16 N/A
6:35 pm 18:35 Sunny 87 30.6 37 2.7 17 17 S 26 43 29.45 997 10 16 N/A
6:55 pm 18:55 Sunny 86 30.2 37 2.7 17 17 S 22 35 29.45 997 10 16 N/A
7:15 pm 19:15 Sunny 86 29.8 37 2.6 17 17 S 20 31 29.44 997 10 16 N/A
7:35 pm 19:35 Sunny 84 29.1 38 3.1 19 19 S 20 31 29.45 997 10 16 N/A
7:55 pm 19:55 Sunny 82 27.5 39 3.9 22 22 S 14 22 29.46 998 10 16 N/A
8:15 pm 20:15 Sunny 77 25.2 42 5.4 28 28 S 13 20 29.48 998 10 16 N/A
8:35 pm 20:35 Clear 76 24.5 43 6 30 30 S 14 22 29.48 998 10 16 N/A
8:55 pm 20:55 Clear 76 24.2 43 6.3 32 32 S 13 20 29.48 998 10 16 N/A
9:15 pm 21:15 Clear 75 23.9 44 6.4 32 32 S 15 24 29.49 999 10 16 N/A
9:35 pm 21:35 Clear 73 22.6 44 6.5 35 35 S 13 20 29.50 999 10 16 N/A
9:55 pm 21:55 Clear 72 22.3 44 6.6 36 36 S 13 20 29.50 999 10 16 N/A
10:15 pm 22:15 Clear 71 21.9 44 6.5 37 37 S 15 24 29.50 999 10 16 N/A
10:35 pm 22:35 Clear 72 22.1 44 6.7 37 37 S 16 26 29.51 999 10 16 N/A
10:55 pm 22:55 Clear 72 22 45 7 38 38 S 16 26 29.51 999 10 16 N/A
11:15 pm 23:15 Clear 71 21.5 45 7.2 40 40 S 20 31 29.51 999 10 16 N/A
11:35 pm 23:35 Clear 70 21 46 7.6 42 42 S 21 33 29.51 999 10 16 N/A
11:55 pm 23:55 Clear 68 20.2 47 8.3 46 46 S 16 26 29.52 1000 10 16 N/A

Powered by AerisWeather